This is the latest recevied weather packets stored in our database for station/object KY4LEX. If no packets are shown the sender has not sent any weather packets the latest 10 day(s).
| Time | Temp. | Humidity | Pressure | Rain* | Wind** | Luminosity | Snow |
|---|---|---|---|---|---|---|---|
| 1777820601 | 13.33° C | 34% | 1026.4 hPa | 0 mm | - | 562 W/m² | - |
| 1777820298 | 12.78° C | 31% | 1026.4 hPa | 0 mm | - | 552 W/m² | - |
| 1777819996 | 12.78° C | 36% | 1026.3 hPa | 0 mm | - | 541 W/m² | - |
| 1777819692 | 12.78° C | 33% | 1026.5 hPa | 0 mm | - | 529 W/m² | - |
| 1777819391 | 12.22° C | 38% | 1026.4 hPa | 0 mm | - | 424 W/m² | - |
| 1777819088 | 11.67° C | 38% | 1026.4 hPa | 0 mm | - | 85 W/m² | - |
| 1777818784 | 11.67° C | 39% | 1026.3 hPa | 0 mm | - | 93 W/m² | - |
| 1777818480 | 11.67° C | 41% | 1026.4 hPa | 0 mm | - | 115 W/m² | - |
| 1777818177 | 11.11° C | 38% | 1026.5 hPa | 0 mm | - | 89 W/m² | - |
| 1777817874 | 11.11° C | 41% | 1026.5 hPa | 0 mm | - | 57 W/m² | - |
| 1777817572 | 11.11° C | 38% | 1026.4 hPa | 0 mm | - | 368 W/m² | - |
| 1777817268 | 11.11° C | 43% | 1026.3 hPa | 0 mm | - | 314 W/m² | - |
| 1777816965 | 11.11° C | 41% | 1026.5 hPa | 0 mm | - | 193 W/m² | - |
| 1777816662 | 10.56° C | 42% | 1026.6 hPa | 0 mm | - | 224 W/m² | - |
| 1777816359 | 10.56° C | 45% | 1026.4 hPa | 0 mm | - | 53 W/m² | - |
| 1777816056 | 10.56° C | 46% | 1026.2 hPa | 0 mm | - | 47 W/m² | - |
| 1777815754 | 10° C | 53% | 1026.5 hPa | 0 mm | - | 59 W/m² | - |
| 1777815451 | 9.44° C | 56% | 1026.3 hPa | 0 mm | - | 103 W/m² | - |
| 1777815148 | 9.44° C | 58% | 1026.3 hPa | 0 mm | - | 64 W/m² | - |
| 1777814845 | 8.89° C | 58% | 1026.4 hPa | 0 mm | - | 43 W/m² | - |
| 1777814541 | 8.89° C | 58% | 1026.4 hPa | 0 mm | - | 42 W/m² | - |
| 1777814238 | 8.33° C | 62% | 1026.2 hPa | 0 mm | - | 41 W/m² | - |
| 1777813935 | 8.33° C | 63% | 1026.5 hPa | 0 mm | - | 40 W/m² | - |
| 1777813633 | 7.78° C | 65% | 1026.5 hPa | 0 mm | - | 59 W/m² | - |
| 1777813330 | 7.22° C | 65% | 1026.4 hPa | 0 mm | - | 50 W/m² | - |
* Rain latest hour (hover to see other rain measurements)
** Current wind speed in m/s (hover to see current wind gust speed)